DW5868 Weather Reports


time (UTC)temp
C
wind
direction
speed
KPH
gust
KPH
rain 1hr
cm
rain 24hr
cm
rain mn
cm
humidity
%
barometer
mb
20260906204511 15 310 12.9 45.1 0.00 0.00 0.00 26 1008.5
20260906203009 16 237 12.9 38.6 0.00 0.00 0.00 24 1008.3
20260906201508 16 284 9.7 40.2 0.00 0.00 0.00 25 1008.5
20260906200008 16 250 9.7 29.0 0.00 0.00 0.00 24 1008.4
20260906194507 15 280 16.1 30.6 0.00 0.00 0.00 27 1008.4
20260906193005 16 273 8.0 24.1 0.00 0.00 0.00 29 1008.6
20260906191505 16 276 9.7 33.8 0.00 0.00 0.00 30 1008.7
20260906190004 15 298 9.7 40.2 0.00 0.00 0.00 31 1008.5
20260906184510 15 207 11.3 33.8 0.00 0.00 0.00 30 1008.6
20260906183003 16 294 12.9 35.4 0.00 0.00 0.00 29 1008.6
20260906181600 16 290 6.4 41.8 0.00 0.00 0.00 31 1008.4
20260906180100 16 321 11.3 29.0 0.00 0.00 0.00 29 1008.4
20260906174605 15 220 12.9 30.6 0.00 0.00 0.00 29 1008.3
20260906173114 16 275 8.0 33.8 0.00 0.00 0.00 28 1008.3
20260906171558 16 270 8.0 25.7 0.00 0.00 0.00 28 1008.3
20260906170057 15 246 6.4 24.1 0.00 0.00 0.00 29 1008.5
20260906164552 14 319 12.9 37.0 0.00 0.00 0.00 30 1008.7
20260906163056 14 244 8.0 27.4 0.00 0.00 0.00 31 1008.7
20260906161551 14 200 9.7 32.2 0.00 0.00 0.00 27 1008.7
20260906160052 13 287 8.0 25.7 0.00 0.00 0.00 29 1008.7
20260906154548 13 309 4.8 22.5 0.00 0.00 0.00 29 1008.8
20260906153048 13 319 12.9 33.8 0.00 0.00 0.00 29 1009.0
20260906151545 12 259 8.0 27.4 0.00 0.00 0.00 28 1009.1
20260906150043 11 268 14.5 29.0 0.00 0.00 0.00 37 1009.1
20260906144543 11 284 12.9 38.6 0.00 0.00 0.00 28 1008.8
20260906143041 11 175 8.0 37.0 0.00 0.00 0.00 27 1008.6
20260906141542 11 175 12.9 35.4 0.00 0.00 0.00 29 1008.3
20260906140046 -17 0.0 0.0 0.00 0.00 0.00 1007.9
20260906134534 -17 0.0 0.0 0.00 0.00 0.00 1007.8
20260906133029 -17 0.0 0.0 0.00 0.00 0.00 1007.6
20260906131534 -17 0.0 0.0 0.00 0.00 0.00 1007.3
20260906130022 -17 0.0 0.0 0.00 0.00 0.00 1007.8
20260906124517 -17 0.0 0.0 0.00 0.00 0.00 1007.9
20260906123014 -17 0.0 0.0 0.00 0.00 0.00 1008.1
20260906121508 -17 0.0 0.0 0.00 0.00 0.00 1008.3
20260906120004 -17 0.0 0.0 0.00 0.00 0.00 1008.6
20260906114601 -17 0.0 0.0 0.00 0.00 0.00 1009.0
20260906113103 10 146 9.7 32.2 0.00 0.00 0.00 26 1009.2
20260906111558 10 277 4.8 17.7 0.00 0.00 0.00 27 1009.1
20260906104554 9 282 8.0 22.5 0.00 0.00 0.00 33 1009.0
20260906103053 9 264 6.4 19.3 0.00 0.00 0.00 36 1008.8
20260906101552 9 279 9.7 30.6 0.00 0.00 0.00 39 1008.9
20260906100050 9 250 6.4 32.2 0.00 0.00 0.00 39 1009.1
20260906094604 8 279 9.7 40.2 0.00 0.00 0.00 46 1009.0
20260906093057 8 240 12.9 37.0 0.00 0.00 0.00 48 1009.3
20260906091545 8 261 12.9 33.8 0.00 0.00 0.00 48 1009.2
20260906090110 8 275 12.9 37.0 0.00 0.00 0.00 49 1009.6
20260906084551 8 277 14.5 37.0 0.00 0.00 0.00 51 1009.3
20260906083043 8 261 16.1 48.3 0.00 0.00 0.00 54 1009.5
20260906081539 8 223 12.9 29.0 0.00 0.00 0.00 53 1009.4
20260906080037 8 267 12.9 32.2 0.00 0.00 0.00 54 1009.2
20260906074544 8 163 9.7 37.0 0.00 0.00 0.00 54 1009.4
20260906073032 8 336 16.1 32.2 0.00 0.00 0.00 53 1009.6
20260906071533 8 262 9.7 37.0 0.00 0.00 0.00 51 1009.3
20260906070032 8 256 16.1 33.8 0.00 0.00 0.00 52 1009.1
20260906064534 9 267 14.5 41.8 0.00 0.00 0.00 53 1009.1
20260906063032 9 250 12.9 35.4 0.00 0.00 0.00 53 1009.0
20260906061540 8 286 9.7 35.4 0.00 0.00 0.00 57 1009.0
20260906060032 8 153 9.7 37.0 0.00 0.00 0.00 60 1009.2
20260906054531 8 269 8.0 32.2 0.00 0.00 0.00 60 1009.1
20260906053033 8 222 12.9 41.8 0.00 0.00 0.00 61 1009.3
20260906051536 8 289 14.5 37.0 0.00 0.00 0.00 62 1009.1
20260906050030 9 246 14.5 45.1 0.00 0.00 0.00 61 1009.1
20260906044529 9 275 14.5 38.6 0.00 0.00 0.00 60 1009.4
20260906043033 9 257 11.3 30.6 0.00 0.00 0.00 62 1009.1
20260906041543 9 257 12.9 53.1 0.00 0.00 0.00 60 1009.3
20260906040033 9 256 12.9 37.0 0.00 0.00 0.00 61 1008.9
20260906034535 10 161 9.7 29.0 0.00 0.00 0.00 61 1009.1
20260906033030 10 93 11.3 25.7 0.00 0.00 0.00 60 1008.8
20260906031535 10 252 8.0 43.5 0.00 0.00 0.00 60 1008.5
20260906030034 10 173 6.4 22.5 0.00 0.00 0.00 61 1008.9
20260906024528 10 336 6.4 33.8 0.00 0.00 0.00 60 1008.7
20260906023027 10 257 6.4 22.5 0.00 0.00 0.00 61 1008.7
20260906021528 10 231 9.7 30.6 0.00 0.00 0.00 60 1008.6
20260906020027 11 271 6.4 27.4 0.00 0.00 0.00 59 1008.7
20260906014541 11 207 4.8 27.4 0.00 0.00 0.00 58 1008.5
20260906013027 12 272 6.4 38.6 0.00 0.00 0.00 57 1008.7
20260906011526 12 259 8.0 32.2 0.00 0.00 0.00 54 1008.5
20260906010053 13 163 6.4 35.4 0.00 0.00 0.00 52 1008.6
20260906004524 13 263 6.4 33.8 0.00 0.00 0.00 52 1008.5
20260906003025 13 229 9.7 25.7 0.00 0.00 0.00 51 1008.4
20260906001536 14 278 8.0 30.6 0.00 0.00 0.00 51 1008.5
20260906000023 14 270 9.7 29.0 0.00 0.00 0.00 50 1008.2
20260905234522 15 312 9.7 30.6 0.00 0.00 0.00 50 1008.2
20260905233022 15 224 9.7 27.4 0.00 0.00 0.00 50 1008.1
20260905231536 15 273 11.3 29.0 0.00 0.00 0.00 49 1008.3
20260905230022 15 84 11.3 33.8 0.00 0.00 0.00 49 1008.3
20260905224526 15 38 9.7 38.6 0.00 0.00 0.00 48 1008.3
20260905223033 15 215 11.3 37.0 0.00 0.00 0.00 47 1008.4
20260905221520 15 172 6.4 43.5 0.00 0.00 0.00 46 1008.4
20260905220025 16 255 9.7 25.7 0.00 0.00 0.00 45 1008.5
20260905214519 16 260 9.7 25.7 0.00 0.00 0.00 44 1008.7
20260905213021 15 253 11.3 32.2 0.00 0.00 0.00 46 1008.9
20260905211535 16 281 11.3 40.2 0.00 0.00 0.00 41 1008.8
20260905210020 16 272 9.7 30.6 0.00 0.00 0.00 40 1008.8